This demonstration page uses our WeatherBlox Daily Observations layout. Learn more.

Left ArrowRight Arrow

Hourly Observations for December 3, 2015

Temp ( °F °C ) Dew Point ( °F °C ) Humidity (%) Winds ( mph kmh ) Pressure ( in mb ) Visibility ( mi km ) Precip ( " mm )
12:53 am 00:53 Clear 47 8.3 37 2.8 69 69 Calm 30.04 1017 10 16 0.00 0.00
1:53 am 01:53 Clear 45 7.2 37 2.8 74 74 WNW 5 7 30.05 1018 10 16 0.00 0.00
2:53 am 02:53 Clear 45 7.2 36 2.2 71 71 NNW 8 13 30.07 1018 10 16 0.00 0.00
3:53 am 03:53 Clear 44 6.7 35 1.7 71 71 N 10 17 30.08 1019 10 16 0.00 0.00
4:53 am 04:53 Clear 43 6.1 31 -0.6 63 63 NNW 10 17 30.09 1019 10 16 0.00 0.00
5:53 am 05:53 Clear 42 5.6 31 -0.6 65 65 NNW 6 9 30.12 1020 10 16 0.00 0.00
6:53 am 06:53 Clear 41 5 31 -0.6 67 67 NNW 6 9 30.15 1021 10 16 0.00 0.00
7:53 am 07:53 Sunny 40 4.4 30 -1.1 68 68 NNW 8 13 30.17 1022 10 16 0.00 0.00
8:53 am 08:53 Mostly Cloudy 41 5 30 -1.1 65 65 N 8 13 30.20 1023 10 16 0.00 0.00
9:53 am 09:53 Sunny 42 5.6 31 -0.6 65 65 NNW 6 9 30.22 1023 10 16 0.00 0.00
10:53 am 10:53 Sunny 45 7.2 31 -0.6 58 58 NW 6 9 30.24 1024 10 16 0.00 0.00
11:53 am 11:53 Sunny 45 7.2 30 -1.1 56 56 NW 10 17 30.25 1024 10 16 0.00 0.00
12:53 pm 12:53 Sunny 45 7.2 29 -1.7 54 54 NNW 9 15 30.22 1023 10 16 0.00 0.00
1:53 pm 13:53 Sunny 47 8.3 30 -1.1 52 52 NNW 8 13 30.22 1023 10 16 0.00 0.00
2:53 pm 14:53 Sunny 48 8.9 30 -1.1 50 50 NW 6 9 30.23 1024 10 16 0.00 0.00
3:53 pm 15:53 Sunny 48 8.9 32 0 54 54 NNW 8 13 30.23 1024 10 16 0.00 0.00
4:53 pm 16:53 Sunny 48 8.9 31 -0.6 52 52 NNW 3 6 30.25 1024 10 16 0.00 0.00
5:53 pm 17:53 Clear 45 7.2 33 0.6 63 63 Calm 30.26 1025 10 16 0.00 0.00
6:53 pm 18:53 Clear 43 6.1 35 1.7 74 74 N 3 6 30.29 1026 10 16 0.00 0.00
7:53 pm 19:53 Clear 44 6.7 32 0 63 63 N 3 6 30.30 1026 10 16 0.00 0.00
8:53 pm 20:53 Clear 43 6.1 30 -1.1 60 60 Calm 30.32 1027 10 16 0.00 0.00
9:53 pm 21:53 Clear 40 4.4 31 -0.6 70 70 Calm 30.34 1028 10 16 0.00 0.00
10:53 pm 22:53 Clear 38 3.3 33 0.6 83 83 NNE 3 6 30.36 1028 10 16 0.00 0.00
11:53 pm 23:53 Clear 36 2.2 32 0 86 86 Calm 30.36 1028 10 16 0.00 0.00

Powered by AerisWeather